Wind_Speed
115 115 117 117 116 116 118 118 119 122 124 125 126 129 129 128 123 118 116 116 119 121 126 129 134 126 124 125 124 122 120 114 114 109 109 106 104 106 107 106 104 104 97
119 121 123 123 124 124 125 125 126 129 130 131 131 131 127 122 120 120 122 124 128 131 135 131 131 126 124 121 118 116 112 105 93 110 103 105 105 105 109 110 108 107 105
124 124 125 128 129 128 131 133 133 132 132 131 130 126 124 124 126 128 130 134 133 129 131 133 133 124 119 115 106 101 103 97 94 106 99 101 99 101 104 110 110 110 108
133 133 133 133 133 133 133 136 136 134 131 128 127 127 129 131 133 134 131 134 136 134 132 125 122 116 106 100 96 95 96 93 94 99 98 96 96 93 100 102 104 110 110
139 139 141 140 139 139 138 135 133 132 131 131 134 137 140 136 135 137 138 135 137 128 121 117 109 104 103 101 97 97 97 98 98 99 97 98 88 91 97 98 99 105 102
141 139 138 136 136 136 134 133 133 136 139 142 143 140 140 142 144 144 143 135 122 120 111 107 106 103 104 105 104 104 103 100 98 99 97 99 98 91 97 98 94 96 98
136 136 135 134 132 135 139 141 143 144 144 144 143 146 147 148 139 135 128 120 118 108 106 107 105 108 108 107 105 104 102 101 97 96 97 98 99 100 98 98 95 94 94
133 134 138 142 142 142 144 145 145 146 148 150 151 147 139 136 132 125 120 119 112 109 107 107 108 108 106 103 101 100 99 102 100 97 94 94 100 100 101 101 98 95 91
143 144 144 146 147 145 146 148 150 153 155 152 142 142 140 131 122 119 115 113 113 115 113 111 109 107 103 98 97 97 97 100 102 101 98 93 94 97 102 103 98 100 91
146 147 147 147 149 152 151 156 156 154 147 141 141 128 123 122 119 117 116 116 117 115 113 111 108 102 101 100 99 99 97 99 100 100 99 97 95 94 101 102 100 100 94
147 148 152 153 154 156 153 148 145 138 137 126 122 120 120 120 120 122 123 122 119 115 112 109 106 104 101 99 99 97 98 99 98 96 95 97 95 93 95 98 99 98 93
157 157 154 153 149 151 146 139 131 124 123 119 119 120 122 122 126 127 124 121 116 111 108 107 105 106 105 105 104 99 97 96 94 91 92 90 91 89 90 92 93 93 93
151 146 146 151 137 126 125 121 119 121 122 122 123 124 126 126 124 122 119 116 112 109 107 106 105 105 104 103 103 101 100 101 98 93 89 90 92 92 94 93 94 97 91
137 133 129 126 122 119 120 120 123 126 127 129 128 125 122 118 116 115 112 110 111 111 111 111 108 106 104 103 102 103 101 100 99 96 92 86 89 93 100 104 101 99 98
122 121 119 119 120 122 125 127 127 127 125 122 119 116 115 113 111 111 111 110 111 111 110 110 108 108 106 104 104 104 102 98 94 94 91 85 85 89 97 106 108 106 103
121 120 119 121 124 124 123 122 119 116 115 114 113 112 110 110 111 112 112 111 109 108 108 108 107 106 103 100 100 99 99 96 93 89 84 79 79 87 93 101 111 111 108
114 116 117 116 115 113 110 109 108 110 110 110 111 111 111 111 111 109 107 107 109 107 104 101 99 97 95 92 90 90 91 91 90 88 84 80 74 80 92 95 104 110 111
106 106 104 103 103 104 106 107 107 107 107 110 111 110 108 107 107 106 104 102 102 101 99 97 95 92 91 89 87 86 87 87 87 84 83 80 76 76 83 93 91 101 110
97 97 98 99 101 101 102 102 103 103 104 104 106 107 106 106 104 103 102 100 99 99 98 97 94 90 87 84 82 81 80 80 82 82 81 78 76 77 79 86 89 89 105
93 95 97 99 101 100 100 101 103 104 103 102 100 99 99 100 100 100 100 99 98 96 94 92 89 85 81 80 78 76 75 74 75 75 78 76 75 76 79 81 84 85 94
94 94 96 97 97 99 99 97 96 97 97 97 98 98 97 96 96 96 96 95 95 93 91 88 85 80 76 73 72 71 70 69 69 69 72 73 72 74 77 79 79 84 89
93 92 92 92 92 92 93 93 94 94 95 95 96 97 95 95 94 93 92 91 89 88 85 83 81 77 74 70 67 66 66 64 65 65 67 68 69 71 73 77 78 79 85
89 89 89 90 91 91 91 92 92 92 94 95 95 94 94 93 91 89 87 85 83 82 80 77 75 73 71 68 64 64 65 61 61 62 65 65 66 67 70 74 77 78 80
86 86 87 88 89 90 91 91 92 92 93 93 91 90 88 87 86 85 82 80 78 76 74 74 71 69 67 66 62 60 61 61 59 58 62 65 64 66 69 72 75 80 79
83 84 85 87 89 90 91 91 91 89 87 86 86 85 84 82 80 79 77 75 73 72 70 69 67 66 64 63 62 58 56 57 58 57 60 63 63 64 67 70 73 77 79
85 86 87 88 88 88 87 86 84 83 83 83 82 80 78 76 74 72 71 70 69 68 67 65 63 62 61 60 59 57 54 53 54 55 57 61 62 61 64 68 71 75 77
Wind_Direction
282 282 282 283 284 284 284 286 286 288 288 289 288 289 291 290 290 291 292 292 292 292 290 288 290 289 287 285 283 283 281 280 277 276 273 268 264 262 259 258 259 261 260
280 280 280 281 283 284 285 286 287 287 288 287 288 289 290 291 291 292 292 292 290 289 289 289 288 288 287 284 282 279 275 268 273 275 268 266 263 259 257 255 254 256 259
279 280 282 283 284 284 285 286 287 287 288 288 288 289 290 290 291 290 290 289 288 288 288 289 289 287 287 283 279 275 273 268 263 264 266 265 262 260 256 255 254 252 252
280 282 282 283 284 285 285 286 287 287 288 287 288 289 289 289 288 288 290 291 291 290 289 287 288 287 285 281 278 275 273 271 269 267 265 261 263 263 260 254 253 252 250
280 282 283 283 284 285 287 287 288 289 289 289 289 289 289 290 291 291 291 291 293 291 290 289 287 285 284 282 279 276 273 272 271 268 265 264 259 258 260 258 254 251 250
281 281 282 283 285 287 287 288 287 287 287 288 289 290 291 291 292 292 291 291 291 291 288 286 285 284 282 281 280 278 275 272 269 267 265 264 263 254 252 255 256 255 250
282 283 284 285 285 285 285 286 287 287 288 289 290 291 291 293 292 292 292 290 291 288 286 285 284 284 283 281 278 277 274 272 268 263 262 261 259 258 252 250 250 251 249
281 281 282 282 284 285 285 287 288 289 290 291 292 291 292 295 292 291 289 289 287 286 286 285 284 284 282 279 277 275 274 273 272 268 262 256 257 257 256 251 249 246 246
279 281 282 284 285 287 287 287 290 290 291 292 290 290 290 290 290 289 288 287 288 289 288 288 286 284 281 278 274 273 272 271 271 271 270 265 260 256 255 254 248 246 244
282 282 284 285 286 287 288 288 290 291 290 288 289 289 289 288 286 286 286 287 288 289 288 287 285 282 280 278 277 276 273 269 268 267 267 266 264 260 258 255 249 246 244
281 282 284 285 285 287 287 289 290 287 288 287 288 287 286 286 287 288 288 289 289 288 287 285 283 283 282 281 280 277 274 271 269 268 264 262 262 261 259 257 255 250 245
282 283 283 283 284 284 284 285 286 283 284 285 285 285 286 288 287 287 288 288 287 286 283 282 282 281 282 282 281 280 277 273 270 266 263 259 257 257 256 259 257 253 249
279 280 279 281 284 280 282 282 282 283 284 284 285 285 285 285 286 286 285 285 284 284 283 283 282 282 282 282 281 278 275 273 271 267 263 260 254 248 245 243 246 248 244
277 279 280 279 280 281 281 282 282 282 282 283 284 284 284 283 283 284 284 283 283 284 285 285 286 285 283 280 279 278 275 272 271 269 266 260 256 250 245 240 237 237 239
276 277 279 279 279 280 281 282 282 282 283 283 283 282 282 283 283 282 282 282 283 283 284 285 284 282 282 282 281 279 277 274 272 269 266 262 256 251 247 243 239 235 234
276 278 279 278 279 281 282 282 282 282 282 281 282 282 282 282 282 283 284 285 286 285 283 282 282 282 281 280 279 278 277 276 274 270 266 261 255 252 248 245 241 237 235
277 278 279 280 281 282 281 281 282 282 281 281 282 283 284 284 284 285 285 285 284 284 284 283 282 282 281 280 279 277 276 275 272 270 267 262 255 248 251 247 242 239 237
277 278 279 278 278 279 280 280 281 281 282 283 285 285 286 286 287 286 286 286 286 286 286 286 285 284 283 281 279 276 274 272 271 269 267 262 255 250 247 249 246 238 236
276 277 277 279 280 281 282 283 283 283 284 285 286 287 288 288 289 289 289 289 288 288 288 288 287 286 284 282 279 276 273 271 269 267 265 261 256 250 246 246 246 239 236
277 278 279 281 283 284 284 284 285 286 287 287 287 287 287 288 288 289 289 289 289 288 288 288 287 286 284 282 281 278 275 271 267 264 262 260 255 250 245 243 243 240 238
282 283 283 283 283 284 286 287 288 288 288 288 288 287 287 289 289 289 290 290 291 291 291 290 289 287 285 282 280 277 274 272 268 264 260 257 254 250 246 241 240 238 237
284 284 284 285 287 287 288 287 287 287 288 288 289 290 291 291 291 291 291 290 290 290 289 289 288 287 285 283 281 278 275 272 269 264 260 256 253 249 246 242 238 235 236
285 286 286 286 286 287 287 287 288 289 290 291 291 292 292 292 292 292 291 291 291 290 290 289 287 287 285 284 282 279 276 272 268 264 260 255 251 248 246 242 238 234 234
285 285 285 286 287 288 288 290 290 290 291 291 291 291 291 292 293 293 292 292 291 290 290 289 288 287 286 284 280 277 274 272 267 262 259 256 251 248 245 242 238 235 233
286 286 286 287 288 289 289 290 290 291 291 292 292 292 293 293 292 292 293 292 292 291 290 288 287 286 284 282 281 278 273 269 267 262 258 256 252 247 245 242 239 235 233
286 287 287 288 289 290 290 291 292 292 293 293 293 293 293 293 293 292 292 291 290 290 288 287 286 285 284 282 280 278 275 270 265 261 258 256 252 247 244 242 239 234 232
Height
10602 10598 10595 10591 10589 10587 10584 10581 10577 10572 10568 10562 10555 10549 10544 10539 10533 10528 10522 10517 10510 10504 10497 10492 10486 10480 10475 10467 10461 10458 10456 10453 10453 10467 10464 10466 10473 10472 10473 10474 10480 10484 10492
10574 10570 10567 10565 10562 10560 10556 10552 10547 10542 10537 10531 10525 10519 10513 10508 10503 10497 10491 10485 10479 10472 10463 10451 10446 10441 10433 10429 10427 10423 10421 10424 10422 10408 10424 10420 10427 10433 10440 10443 10447 10454 10462
10543 10541 10540 10537 10533 10529 10525 10521 10517 10510 10504 10497 10492 10486 10481 10476 10470 10464 10458 10452 10445 10434 10427 10414 10403 10398 10394 10387 10388 10384 10381 10387 10391 10383 10394 10386 10389 10397 10408 10413 10419 10423 10430
10518 10514 10510 10506 10501 10497 10493 10487 10482 10477 10470 10464 10458 10453 10448 10444 10440 10433 10423 10414 10405 10394 10385 10377 10368 10358 10356 10353 10351 10349 10348 10352 10352 10350 10357 10363 10364 10368 10369 10377 10382 10388 10401
10486 10481 10478 10473 10468 10463 10458 10452 10445 10440 10433 10427 10421 10415 10409 10405 10400 10393 10385 10375 10365 10354 10345 10337 10331 10323 10319 10319 10318 10318 10318 10319 10320 10319 10324 10326 10341 10338 10334 10340 10352 10355 10370
10454 10448 10444 10439 10434 10429 10424 10418 10412 10405 10399 10392 10386 10376 10369 10364 10357 10351 10344 10335 10327 10320 10311 10302 10296 10292 10288 10286 10284 10283 10282 10283 10284 10285 10293 10295 10301 10305 10304 10311 10319 10323 10346
10420 10416 10412 10407 10401 10395 10390 10385 10379 10372 10363 10355 10347 10339 10330 10324 10314 10307 10301 10295 10292 10286 10279 10272 10267 10258 10254 10252 10251 10247 10243 10242 10246 10252 10258 10261 10265 10265 10271 10276 10283 10294 10310
10389 10384 10379 10374 10368 10361 10355 10349 10341 10333 10325 10317 10309 10301 10291 10283 10275 10270 10264 10258 10254 10251 10246 10240 10234 10227 10221 10218 10218 10217 10216 10210 10208 10213 10223 10234 10231 10236 10233 10243 10253 10259 10278
10354 10349 10344 10339 10333 10327 10319 10312 10304 10295 10286 10278 10269 10261 10254 10246 10241 10235 10230 10226 10219 10213 10208 10203 10195 10190 10186 10183 10184 10186 10188 10183 10178 10179 10184 10194 10201 10204 10201 10204 10222 10218 10247
10320 10314 10307 10301 10295 10289 10282 10273 10264 10257 10248 10240 10234 10223 10218 10212 10208 10201 10197 10195 10190 10183 10172 10164 10158 10157 10153 10149 10150 10149 10153 10152 10150 10151 10152 10155 10161 10170 10167 10169 10184 10188 10209
10285 10281 10274 10266 10259 10252 10243 10235 10225 10219 10211 10203 10199 10192 10185 10179 10171 10166 10160 10156 10151 10147 10139 10133 10127 10122 10120 10116 10111 10110 10109 10112 10116 10118 10124 10125 10125 10130 10135 10138 10147 10158 10178
10250 10244 10239 10233 10224 10218 10212 10203 10196 10188 10181 10173 10167 10160 10153 10147 10137 10130 10125 10120 10114 10112 10107 10101 10096 10090 10086 10082 10077 10071 10067 10065 10070 10081 10085 10090 10092 10098 10101 10106 10115 10124 10142
10213 10209 10203 10197 10190 10181 10178 10168 10162 10156 10149 10142 10136 10129 10121 10113 10104 10096 10091 10084 10080 10075 10070 10066 10062 10057 10053 10049 10042 10037 10031 10027 10028 10037 10049 10055 10056 10059 10059 10061 10068 10081 10099
10175 10171 10168 10161 10155 10151 10144 10137 10129 10122 10115 10106 10101 10094 10086 10078 10071 10064 10059 10052 10046 10040 10035 10029 10026 10023 10018 10013 10008 10000 9997 9995 9993 9998 10006 10016 10021 10025 10028 10024 10028 10036 10053
10141 10138 10136 10129 10122 10116 10111 10104 10096 10088 10081 10073 10065 10059 10053 10045 10037 10030 10025 10021 10015 10010 10006 9996 9990 9984 9981 9977 9970 9964 9961 9961 9962 9962 9968 9980 9985 9990 9996 9996 10000 10005 10014
10109 10105 10100 10094 10089 10085 10077 10068 10061 10053 10045 10039 10033 10028 10022 10015 10008 10000 9993 9987 9980 9975 9969 9963 9956 9950 9946 9944 9939 9931 9924 9925 9927 9930 9933 9943 9952 9956 9961 9964 9972 9978 9987
10076 10072 10067 10061 10056 10050 10043 10037 10029 10017 10013 10005 9998 9993 9988 9984 9975 9968 9961 9954 9945 9940 9934 9928 9922 9916 9910 9908 9905 9901 9896 9892 9893 9895 9900 9906 9918 9924 9925 9931 9940 9953 9963
10046 10041 10036 10031 10025 10019 10013 10006 10001 9996 9986 9973 9964 9960 9953 9947 9939 9932 9926 9919 9909 9899 9897 9891 9887 9882 9878 9875 9872 9869 9865 9863 9861 9864 9867 9873 9883 9892 9894 9899 9910 9926 9937
10019 10014 10008 10002 9996 9989 9983 9976 9970 9964 9958 9950 9940 9930 9922 9912 9902 9896 9889 9884 9877 9867 9861 9855 9850 9847 9844 9841 9839 9836 9835 9833 9832 9833 9836 9842 9850 9859 9865 9869 9880 9897 9909
9990 9985 9981 9975 9968 9961 9954 9947 9941 9934 9927 9920 9911 9903 9897 9888 9876 9866 9858 9850 9843 9836 9829 9823 9819 9816 9813 9810 9807 9805 9803 9804 9804 9806 9806 9812 9820 9827 9835 9842 9853 9865 9879
9965 9961 9954 9948 9941 9934 9926 9918 9911 9904 9897 9888 9879 9870 9866 9859 9850 9840 9831 9822 9812 9804 9798 9792 9787 9785 9783 9782 9780 9776 9775 9775 9776 9778 9780 9783 9791 9798 9806 9815 9826 9837 9849
9938 9932 9926 9918 9912 9906 9899 9891 9883 9875 9868 9860 9850 9840 9834 9827 9819 9810 9801 9794 9786 9777 9772 9767 9760 9757 9755 9753 9752 9749 9748 9749 9749 9752 9753 9758 9764 9772 9778 9788 9799 9810 9821
9912 9905 9899 9891 9884 9878 9871 9863 9856 9847 9838 9830 9822 9813 9804 9795 9787 9780 9773 9766 9759 9751 9744 9740 9736 9732 9729 9727 9726 9724 9722 9724 9725 9728 9728 9732 9738 9745 9753 9761 9772 9784 9795
9887 9880 9873 9865 9857 9850 9843 9835 9827 9820 9812 9803 9794 9785 9777 9769 9760 9753 9746 9739 9733 9726 9720 9713 9710 9707 9704 9701 9701 9701 9699 9699 9701 9704 9704 9707 9714 9720 9727 9735 9746 9758 9770
9859 9853 9845 9838 9830 9822 9815 9807 9800 9792 9784 9775 9766 9758 9750 9743 9735 9727 9720 9714 9707 9701 9696 9691 9687 9683 9680 9678 9676 9676 9677 9678 9678 9680 9680 9683 9688 9695 9702 9710 9720 9732 9745
9833 9826 9819 9812 9804 9796 9788 9781 9773 9765 9757 9748 9739 9732 9724 9717 9710 9703 9697 9691 9685 9679 9673 9669 9666 9662 9658 9655 9653 9653 9653 9655 9656 9659 9658 9659 9663 9670 9678 9685 9694 9705 9718